Find Starlink 32042

NORAD ID: 60108 Int'l Des: 2024-117 Owner: SPXS Country: US Constellation: starlink operational
LEOCIRCULAR

現在のビュー

3D地球を読み込み中...

About Starlink 32042

Starlink 32042 (NORAD 60108) is a starlink constellation satellite (v2 mini) launched Jun 23, 2024 by SPXS of US. It operates in LEO, CIRCULAR orbit with a mass of 730.00 kg.

Starlink 32042について

説明を読み込み中...

次回通過

Passes for default location (London). Set your location on the main map for personalized predictions.

高度履歴

Loading altitude history...

軌道要素

1 60108U 24117T 26171.33117619 .00006341 00000-0 22634-3 0 9992
2 60108 53.1619 280.2028 0001391 100.8052 259.3105 15.30154662112602
Epoch: Jun 20, 2026 • Age: 19 hours

現在のステータス

高度 478.3 km
速度 7.63 km/s
衛星直下点 41.09°N, 97.05°E
打ち上げ日 Jun 23, 2024
運用期間 1.9 years
タイプ internet

技術仕様

分類 Payload
質量 730.00 kg
乾燥質量 700.00 kg
総質量 730.00 kg
長さ 0.30 m
直径 4.10 m
スパン 29.00 m
形状 Box + pan
製造者 SPXS
バスタイプ Starlink V2M
フェーズステータス In Orbit
所有者/国 SPXS/US

Most Searched